カタログに戻る

STARLINK-33563

運用中通信VLEO
NORAD 62284·PAYLOAD·🇺🇸 United States

打ち上げ Dec 8, 2024 から Cape Canaveral Space Force Station

Loading…

次のパス (今後24時間)

TLE

最新Source: CelesTrak SupGP

元期: Sep 15, 2026, 03:05 UTC

1 62284C 24237T   26258.12895833 -.00061058  00000+0 -22117-2 0  2586
2 62284  42.9992 226.5881 0001225 271.3350  74.3239 15.27606135    17

AllMySatでSTARLINK-33563をリアルタイム追跡

Download on the App Store